Погода в Баре

Украина / Винницкая область     49˚04′41″N   27˚40′53″E
темп.,
°C
ветер,
м/с
пор.,
м/с
влажн.,
%
обл.,
%
осадки,
мм/ч
давл.,
гПа
погр.,
м
6 декабря, вс
вс623:00+1˚юв71187100 0.0 1027557
02:00юв61085100 0.0 1028520
05:00−1˚юв7118699 0.0 1028515
08:00−2˚юв7118299 0.0 1028539
11:00−1˚юв7126338 0.0 1029607
14:00+1˚юв7125819 0.0 1028683
17:00−2˚вюв713550 0.0 1028507
20:00−3˚юв714470 0.0 1028578
7 декабря, пн
пн723:00−3˚юв714480 0.0 1028555
02:00−4˚вюв713520 0.0 1028484
05:00−5˚вюв713630 0.0 1027473
08:00−6˚вюв713680 0.0 1028466
11:00−4˚юв713600 0.0 1027562
14:00−3˚вюв711580 0.0 1026655
17:00−5˚вюв7126610 0.0 1026652
20:00−5˚вюв7138139 0.0 1026575
8 декабря, вт
вт823:00−5˚вюв71389100 0.1 1025509
02:00−3˚вюв7127598 0.1 1025520
05:00−5˚вюв7127889 0.1 1024430
08:00−6˚вюв7127279 0.1 1024498
11:00−4˚вюв697067 0.0 1024522
14:00−3˚вюв687079 0.0 1024549
17:00−4˚в597799 0.0 1024429
20:00−4˚вюв598299 0.0 1025408
9 декабря, ср
ср923:00−4˚вюв5886100 0.1 1025419
02:00−3˚в588596 0.1 1025400
05:00−5˚в588985 0.0 1025345
08:00−5˚в589192 0.1 1024350
11:00−4˚в5885100 0.3 1024365
14:00−3˚вюв5884100 0.3 1023357
17:00−3˚вюв5989100 0.1 1023328
20:00−3˚вюв6109199 0.1 1022351
10 декабря, чт
чт1023:00−1˚юв61192100 0.0 1022386
02:00−1˚вюв7129499 0.0 1021352
05:00+1˚вюв71395100 0.0 1019495
08:00+3˚вюв81594100 0.0 1018528
11:00+3˚вюв81596100 1.4 1018482
14:00+5˚юв81695100 3.3 1017533
17:00+4˚юв91796100 2.4 1017568
20:00+4˚юв91695100 3.8 1017565